DKFGT LOWI-LIPV

Flight info

Callsign DKFGT
Flight time N/A
Altitude 9000
Route DCT BR DCT ALUCE DCT
Aircraft DV20/L-V/L

Departure

Time 2026-05-06 17:23
Airport Innsbruck Airport (LOWI)

Arrival

Time N/A
Airport Venice-Lido Giovanni Nicelli Airfield (LIPV)
Time Latitude Longitude Altitude Speed Heading
2026-05-06 16:58 47.25882 11.35418 1893 ft 0 kts 265°
2026-05-06 17:13 47.25888 11.35401 1890 ft 7 kts 338°
2026-05-06 17:13 47.25916 11.35366 1890 ft 7 kts 271°
2026-05-06 17:13 47.25909 11.35319 1893 ft 10 kts 251°
2026-05-06 17:14 47.25897 11.35247 1893 ft 12 kts 259°
2026-05-06 17:14 47.25882 11.35126 1893 ft 13 kts 260°
2026-05-06 17:15 47.25867 11.34993 1893 ft 9 kts 261°
2026-05-06 17:15 47.25867 11.34989 1893 ft 1 kts 262°
2026-05-06 17:16 47.25865 11.34966 1890 ft 6 kts 262°
2026-05-06 17:16 47.25856 11.34881 1893 ft 11 kts 261°
2026-05-06 17:17 47.25845 11.34769 1893 ft 12 kts 261°
2026-05-06 17:17 47.25833 11.34649 1889 ft 10 kts 260°
2026-05-06 17:17 47.25822 11.34550 1887 ft 10 kts 261°
2026-05-06 17:17 47.25811 11.34454 1889 ft 9 kts 261°
2026-05-06 17:18 47.25802 11.34363 1893 ft 9 kts 261°
2026-05-06 17:18 47.25792 11.34275 1890 ft 9 kts 261°
2026-05-06 17:18 47.25783 11.34189 1893 ft 9 kts 257°
2026-05-06 17:18 47.25773 11.34104 1893 ft 8 kts 264°
2026-05-06 17:19 47.25768 11.34021 1893 ft 8 kts 272°
2026-05-06 17:19 47.25781 11.33941 1889 ft 8 kts 293°
2026-05-06 17:19 47.25812 11.33870 1893 ft 5 kts 308°
2026-05-06 17:19 47.25818 11.33860 1893 ft 0 kts 305°
2026-05-06 17:21 47.25838 11.33820 1889 ft 9 kts 308°
2026-05-06 17:21 47.25870 11.33757 1892 ft 7 kts 307°
2026-05-06 17:21 47.25907 11.33697 1899 ft 8 kts 343°
2026-05-06 17:21 47.25923 11.33694 1900 ft 3 kts
2026-05-06 17:22 47.25950 11.33741 1900 ft 8 kts 78°
2026-05-06 17:22 47.25979 11.34000 1900 ft 49 kts 81°
2026-05-06 17:22 47.26042 11.34659 1976 ft 73 kts 83°
2026-05-06 17:22 47.26130 11.35449 2106 ft 85 kts 82°
2026-05-06 17:23 47.26194 11.36238 2399 ft 63 kts 123°
2026-05-06 17:23 47.25811 11.36368 2559 ft 63 kts 197°
2026-05-06 17:23 47.25452 11.35934 2767 ft 68 kts 216°
2026-05-06 17:23 47.25077 11.35536 3017 ft 66 kts 211°
2026-05-06 17:24 47.24708 11.35182 3232 ft 62 kts 201°
2026-05-06 17:24 47.24253 11.35345 3396 ft 63 kts 143°
2026-05-06 17:24 47.23981 11.35833 3592 ft 69 kts 128°
2026-05-06 17:24 47.23730 11.36367 3765 ft 61 kts 148°
2026-05-06 17:25 47.23371 11.36756 3961 ft 65 kts 151°
2026-05-06 17:25 47.22993 11.37136 4159 ft 65 kts 146°
2026-05-06 17:25 47.22604 11.37492 4357 ft 63 kts 154°
2026-05-06 17:25 47.22228 11.37851 4526 ft 65 kts 149°
2026-05-06 17:26 47.21868 11.38240 4674 ft 69 kts 149°
2026-05-06 17:26 47.21471 11.38599 4897 ft 64 kts 156°
2026-05-06 17:26 47.21026 11.38777 5137 ft 59 kts 178°
2026-05-06 17:26 47.20594 11.38813 5298 ft 67 kts 166°
2026-05-06 17:27 47.20158 11.39030 5517 ft 70 kts 159°
2026-05-06 17:27 47.19916 11.39178 5633 ft 68 kts 160°
2026-05-06 17:27 47.19815 11.39228 5675 ft 69 kts 161°
2026-05-06 17:28 47.19387 11.39599 5838 ft 69 kts 139°
2026-05-06 17:28 47.19057 11.40175 5955 ft 75 kts 135°
2026-05-06 17:28 47.18753 11.40682 6180 ft 67 kts 144°
2026-05-06 17:28 47.18317 11.41026 6327 ft 70 kts 156°
2026-05-06 17:29 47.17885 11.41343 6638 ft 64 kts 158°
2026-05-06 17:29 47.17494 11.41656 6855 ft 66 kts 168°
2026-05-06 17:29 47.17048 11.41747 6976 ft 73 kts 170°
2026-05-06 17:29 47.16580 11.41960 7068 ft 77 kts 161°
2026-05-06 17:30 47.16111 11.42298 7174 ft 71 kts 160°
2026-05-06 17:30 47.15660 11.42565 7228 ft 66 kts 164°
2026-05-06 17:30 47.15239 11.42861 7092 ft 69 kts 155°
2026-05-06 17:30 47.14826 11.43230 7050 ft 70 kts 151°
2026-05-06 17:31 47.14430 11.43708 7109 ft 73 kts 150°
2026-05-06 17:31 47.13992 11.44120 7235 ft 76 kts 157°
2026-05-06 17:31 47.13549 11.44412 7389 ft 67 kts 162°
2026-05-06 17:31 47.13109 11.44768 7366 ft 74 kts 153°
2026-05-06 17:32 47.12666 11.45168 7470 ft 75 kts 151°
2026-05-06 17:32 47.12241 11.45599 7589 ft 76 kts 151°
2026-05-06 17:32 47.11821 11.46028 7758 ft 74 kts 153°
2026-05-06 17:32 47.11366 11.46404 7917 ft 70 kts 162°
2026-05-06 17:33 47.10901 11.46654 8001 ft 75 kts 164°
2026-05-06 17:33 47.10452 11.46990 8239 ft 72 kts 159°
2026-05-06 17:33 47.09957 11.47179 8393 ft 74 kts 171°
2026-05-06 17:33 47.09480 11.47333 8604 ft 70 kts 172°
2026-05-06 17:34 47.08999 11.47443 8745 ft 70 kts 176°
2026-05-06 17:34 47.08513 11.47496 8907 ft 71 kts 180°
2026-05-06 17:34 47.08032 11.47396 9076 ft 70 kts 193°
2026-05-06 17:34 47.07552 11.47215 9249 ft 70 kts 191°
2026-05-06 17:35 47.07099 11.47047 9391 ft 72 kts 194°
2026-05-06 17:35 47.06623 11.46814 9508 ft 68 kts 199°
2026-05-06 17:35 47.06163 11.46616 9568 ft 68 kts 191°
2026-05-06 17:36 47.05122 11.46843 9495 ft 93 kts 161°
2026-05-06 17:36 47.04556 11.47270 9520 ft 93 kts 159°
2026-05-06 17:36 47.03947 11.47738 9417 ft 98 kts 158°
2026-05-06 17:36 47.03405 11.48255 9488 ft 94 kts 152°
2026-05-06 17:37 47.02827 11.48719 9384 ft 91 kts 176°
2026-05-06 17:37 47.02198 11.48575 9283 ft 92 kts 188°
2026-05-06 17:37 47.01556 11.48430 9246 ft 95 kts 191°
2026-05-06 17:37 47.00911 11.48297 9292 ft 92 kts 188°
2026-05-06 17:38 47.00282 11.48226 9383 ft 91 kts 186°
2026-05-06 17:38 46.99655 11.48208 9309 ft 93 kts 184°
2026-05-06 17:38 46.98964 11.48236 9193 ft 100 kts 182°
2026-05-06 17:38 46.98251 11.48261 9078 ft 100 kts 181°
2026-05-06 17:39 46.97597 11.48210 9162 ft 92 kts 188°
2026-05-06 17:39 46.96953 11.48094 9069 ft 94 kts 189°
2026-05-06 17:39 46.96350 11.47995 9101 ft 89 kts 186°
2026-05-06 17:39 46.95718 11.47965 9036 ft 89 kts 183°
2026-05-06 17:40 46.95105 11.47804 9094 ft 91 kts 202°
2026-05-06 17:40 46.94513 11.47453 8994 ft 95 kts 199°
2026-05-06 17:40 46.93850 11.47125 8874 ft 104 kts 199°
2026-05-06 17:40 46.93201 11.46709 8747 ft 108 kts 202°
2026-05-06 17:41 46.92486 11.46263 8612 ft 113 kts 201°
2026-05-06 17:41 46.91729 11.45858 8404 ft 113 kts 199°
2026-05-06 17:41 46.91003 11.45507 8330 ft 107 kts 197°
2026-05-06 17:41 46.90356 11.45088 8280 ft 109 kts 204°
2026-05-06 17:42 46.89618 11.44805 8106 ft 114 kts 185°
2026-05-06 17:42 46.88807 11.44905 7817 ft 122 kts 170°
2026-05-06 17:42 46.88028 11.45218 7754 ft 110 kts 164°
2026-05-06 17:42 46.87389 11.45602 7954 ft 90 kts 162°
2026-05-06 17:43 46.86852 11.45929 8091 ft 82 kts 167°
2026-05-06 17:43 46.86256 11.46192 7936 ft 102 kts 162°
2026-05-06 17:43 46.85617 11.46483 8031 ft 87 kts 176°
2026-05-06 17:43 46.85062 11.46476 8074 ft 77 kts 186°
2026-05-06 17:44 46.84504 11.46600 7969 ft 91 kts 162°
2026-05-06 17:44 46.83968 11.47105 8119 ft 88 kts 150°
2026-05-06 17:44 46.83530 11.47690 8279 ft 96 kts 143°
2026-05-06 17:44 46.83054 11.48461 8302 ft 103 kts 139°
2026-05-06 17:45 46.82588 11.49166 8525 ft 88 kts 145°
2026-05-06 17:45 46.82169 11.49781 8722 ft 84 kts 143°
2026-05-06 17:45 46.81759 11.50372 8946 ft 79 kts 149°
2026-05-06 17:45 46.81319 11.50840 8963 ft 90 kts 155°
2026-05-06 17:46 46.80788 11.51291 9016 ft 90 kts 159°
2026-05-06 17:46 46.80235 11.51701 9084 ft 94 kts 161°
2026-05-06 17:46 46.79637 11.52066 9144 ft 93 kts 168°
2026-05-06 17:46 46.79007 11.52319 9120 ft 99 kts 168°
2026-05-06 17:47 46.78346 11.52631 9149 ft 100 kts 166°
2026-05-06 17:47 46.77673 11.52911 9199 ft 100 kts 169°
2026-05-06 17:47 46.76998 11.53130 9236 ft 97 kts 175°
2026-05-06 17:47 46.76343 11.53072 9301 ft 91 kts 198°
2026-05-06 17:48 46.75747 11.52768 9211 ft 94 kts 200°
2026-05-06 17:48 46.75144 11.52419 9140 ft 87 kts 202°
2026-05-06 17:48 46.74570 11.52097 9253 ft 90 kts 202°
2026-05-06 17:48 46.74002 11.51744 9281 ft 90 kts 204°
2026-05-06 17:49 46.73423 11.51361 9134 ft 89 kts 202°
2026-05-06 17:49 46.72813 11.51055 9095 ft 92 kts 194°
2026-05-06 17:49 46.72112 11.50963 9002 ft 99 kts 188°
2026-05-06 17:49 46.71458 11.50901 9139 ft 91 kts 185°
2026-05-06 17:50 46.70842 11.50808 9313 ft 87 kts 192°
2026-05-06 17:50 46.70227 11.50625 9284 ft 90 kts 193°
2026-05-06 17:50 46.69576 11.50407 9159 ft 102 kts 194°
2026-05-06 17:50 46.69105 11.50259 9082 ft 102 kts 190°